1370390434477,58.6208
1370390494477,58.7487
1370390554477,58.5757
1370390614477,58.6603
1370390674477,58.7649
1370390734477,58.6836
1370390794477,58.6864
1370390854477,58.6225
1370390914477,58.6710
1370390974477,58.5512
1370391034477,58.6544
1370391094477,58.8193
1370391154477,58.7330
1370391214477,58.5988
1370391274477,58.5661
1370391334477,58.7914
1370391394477,58.6678
1370391454477,58.7444
1370391514477,58.6470
1370391574477,58.5187
1370391634477,58.7967
1370391694477,58.8367
1370391754477,58.7230
1370391814477,58.7217
1370391874477,58.7368
1370391934477,58.8405
1370391994477,58.7173
1370392054477,58.7317
1370392114477,58.6263
1370392174477,58.8139
1370392234477,58.5151
1370392294477,58.7252
1370392354477,58.7126
1370392414477,58.6389
1370392474477,58.8527
1370392534477,58.8052
1370392594477,58.9723
1370392654477,58.9991
1370392714477,58.7690
1370392774477,58.7531
1370392834477,58.7544
1370392894477,58.6156
1370392954477,58.7038
1370393014477,58.6984
1370393074477,58.4241
1370393134477,58.9986
1370393194477,58.7894
1370393254477,58.7054
1370393314477,58.7302
1370393374477,58.7752
1370393434477,58.6989
1370393494477,58.8678
1370393554477,58.7847
1370393614477,58.7960
1370393674477,58.7769
1370393734477,58.9297
1370393794477,58.5500
1370393854477,58.6556
1370393914477,58.6620
1370393974477,58.8017
1370394034488,58.8049
1370394094488,58.7679
1370394154488,58.7794
1370394214488,58.7288
1370394274488,58.6094
1370394334488,58.6891
1370394394488,58.7112
1370394454488,58.8255
1370394514488,58.9626
1370394574488,58.6699
1370394634488,58.6505
1370394694488,58.7141
1370394754488,58.8358
1370394814488,58.5619
1370394874488,58.5892
1370394934488,58.6178
1370394994488,58.6948
1370395054488,58.6165
1370395114488,58.7257
1370395174488,58.6216
1370395234488,58.6681
1370395294488,58.4679
1370395354488,58.7471
1370395414488,58.7382
1370395474488,58.5638
1370395534488,58.5567
1370395594488,58.4651
1370395654488,58.5802
1370395714488,58.4766
1370395774488,58.4798
1370395834488,58.6542
1370395894488,58.5249
1370395954488,58.6145
1370396014488,58.7246
1370396074488,58.5066
1370396134488,58.6261
1370396194488,58.4397
1370396254488,58.5953
1370396314488,58.5684
1370396374488,58.6160
1370396434488,58.7316
1370396494488,58.5525
1370396554488,58.4816
1370396614488,58.6301
1370396674488,58.4300
1370396734488,58.4998
1370396794488,58.5737
1370396854488,58.7188
1370396914488,58.5647
1370396974488,58.4341
1370397034488,58.5986
1370397094488,58.6569
1370397154488,58.4770
1370397214488,58.5092
1370397274488,58.4489
1370397334488,58.4243
1370397394488,58.5055
1370397454488,58.4123
1370397514488,58.3682
1370397574488,58.4623
1370397634498,58.5501
1370397694498,58.6035
1370397754498,58.3832
1370397814498,58.4525
1370397874498,58.5170
1370397934498,58.5537
1370397994498,58.3356
1370398054498,58.3852
1370398114498,58.3531
1370398174498,58.3814
1370398234498,58.6284
1370398294498,58.4099
1370398354498,58.4542
1370398414498,58.4847
1370398474498,58.4555
1370398534498,58.3579
1370398594498,58.4785
1370398654498,58.5015
1370398714498,58.4796
1370398774498,58.4986
1370398834498,58.4643
1370398894498,58.4213
1370398954498,58.5975
1370399014498,58.3964
1370399074498,58.5414
1370399134498,58.4560
1370399194498,58.3555
1370399254498,58.2806
1370399314498,58.5434
1370399374498,58.2777
1370399434498,58.5297
1370399494498,58.4448
1370399554498,58.4065
1370399614498,58.4994
1370399674498,58.3628
1370399734498,58.3068
1370399794498,58.2221
1370399854498,58.4457
1370399914498,58.4680
1370399974498,58.3626
1370400034498,58.4768
1370400094498,58.6609
1370400154498,58.5488
1370400214498,58.3257
1370400274498,58.3856
1370400334498,58.3155
1370400394498,58.3555
1370400454498,58.4554
1370400514498,58.3311
1370400574498,58.5163
1370400634498,58.4375
1370400694498,58.3776
1370400754498,58.4247
1370400814498,58.4023
1370400874498,58.2782
1370400934498,58.3982
1370400994498,58.1131
1370401054498,58.3863
1370401114498,58.2958
1370401174498,58.4010
1370401234508,58.6244
1370401294508,58.4602
1370401354508,58.2963
1370401414508,58.3589
1370401474508,58.4641
1370401534508,58.4300
1370401594508,58.4190
1370401654508,58.3750
1370401714508,58.4302
1370401774508,58.3670
1370401834508,58.4436
1370401894508,58.3466
1370401954508,58.3869
1370402014508,58.3559
1370402074508,58.3268
1370402134508,58.5497
1370402194508,58.4042
1370402254508,58.3936
1370402314508,58.4240
1370402374508,58.4212
1370402434508,58.3907
1370402494508,58.2717
1370402554508,58.2943
1370402614508,58.3476
1370402674508,58.5403
1370402734508,58.5738
1370402794508,58.5247
1370402854508,58.3000
1370402914508,58.4307
1370402974508,58.2868
1370403034508,58.2257
1370403094508,58.4441
1370403154508,58.2219
1370403214508,58.2960
1370403274508,58.4046
1370403334508,58.2512
1370403394508,58.3767
1370403454508,58.2671
1370403514508,58.4297
1370403574508,58.2997
1370403634508,58.2425
1370403694508,58.3788
1370403754508,58.2629
1370403814508,58.3797
1370403874508,58.4042
1370403934508,58.0889
1370403994508,58.3333
1370404054508,58.2297
1370404114508,58.2065
1370404174508,58.3290
1370404234508,58.3594
1370404294508,58.2561
1370404354508,58.2970
1370404414508,58.4753
1370404474508,58.1083
1370404534508,58.3011
1370404594508,58.2046
1370404654508,58.3143
1370404714508,58.2904
1370404774508,58.2402
1370404834518,58.0403
1370404894518,58.1953
1370404954518,57.9458
1370405014518,58.1253
1370405074518,58.2474
1370405134518,58.0946
1370405194518,58.1146
1370405254518,58.0981
1370405314518,58.2437
1370405374518,58.2395
1370405434518,58.1420
1370405494518,57.9823
1370405554518,58.0349
1370405614518,58.1686
1370405674518,57.9977
1370405734518,57.9752
1370405794518,57.9469
1370405854518,57.9165
1370405914518,58.1811
1370405974518,58.0887
1370406034518,58.0037
1370406094518,57.9352
1370406154518,58.2459
1370406214518,58.0770
1370406274518,58.0595
1370406334518,57.8453
1370406394518,57.9669
1370406454518,58.1784
1370406514518,57.8122
1370406574518,58.0520
1370406634518,57.9698
1370406694518,57.8755
1370406754518,57.9417
1370406814518,57.7366
1370406874518,57.8593
1370406934518,57.9700
1370406994518,58.0054
1370407054518,57.8675
1370407114518,57.8798
1370407174518,58.0488
1370407234518,57.6096
1370407294518,57.9335
1370407354518,57.8284
1370407414518,57.9396
1370407474518,57.8820
1370407534518,57.7674
1370407594518,57.8642
1370407654518,57.8542
1370407714518,57.9036
1370407774518,57.8328
1370407834518,57.9190
1370407894518,57.8336
1370407954518,57.6861
1370408014518,57.7442
1370408074518,57.9343
1370408134518,58.1037
1370408194518,57.9576
1370408254518,57.7479
1370408314518,57.8193
1370408374518,57.6961
1370408434528,57.6910
1370408494528,57.7896
1370408554528,57.6981
1370408614528,57.8354
1370408674528,57.9179
1370408734528,57.8265
1370408794528,57.6134
1370408854528,57.8743
1370408914528,57.8197
1370408974528,57.9063
1370409034528,57.9716
1370409094528,57.8165
1370409154528,57.8035
1370409214528,57.8500
1370409274528,57.5355
1370409334528,57.7211
1370409394528,57.6447
1370409454528,57.6975
1370409514528,57.7397
1370409574528,57.7849
1370409634528,57.6937
1370409694528,57.8107
1370409754528,58.0198
1370409814528,57.8484
1370409874528,57.9594
1370409934528,57.7925
1370409994528,57.8053
1370410054528,57.8357
1370410114528,57.7519
1370410174528,57.8117
1370410234528,57.8373
1370410294528,57.8180
1370410354528,57.6555
1370410414528,57.8183
1370410474528,57.8831
1370410534528,57.7055
1370410594528,57.7751
1370410654528,57.7821
1370410714528,57.7970
1370410774528,57.7000
1370410834528,57.9658
1370410894528,57.7711
1370410954528,57.7401
1370411014528,57.9323
1370411074528,57.8610
1370411134528,58.1099
1370411194528,57.8152
1370411254528,57.6939
1370411314528,57.9239
1370411374528,57.7355
1370411434528,57.9485
1370411494528,57.9539
1370411554528,57.7829
1370411614528,57.6850
1370411674528,57.8326
1370411734528,57.9103
1370411794528,57.9709
1370411854528,57.7279
1370411914528,57.7365
1370411974528,57.9959
1370412034538,57.7767
1370412094538,57.9861
1370412154538,57.8902
1370412214538,57.8086
1370412274538,57.9785
1370412334538,57.7258
1370412394538,57.9555
1370412454538,57.9787
1370412514538,57.7945
1370412574538,57.8812
1370412634538,57.8616
1370412694538,57.9841
1370412754538,57.9870
1370412814538,58.0330
1370412874538,57.8347
1370412934538,57.8452
1370412994538,58.1260
1370413054538,58.0317
1370413114538,57.8854
1370413174538,57.6916
1370413234538,58.0694
1370413294538,57.8298
1370413354538,57.9714
1370413414538,57.9891
1370413474538,57.8389
1370413534538,57.9524
1370413594538,57.9540
1370413654538,57.9037
1370413714538,57.8216
1370413774538,57.5538
1370413834538,57.8991
1370413894538,57.8668
1370413954538,57.9963
1370414014538,57.9296
1370414074538,58.0131
1370414134538,57.8023
1370414194538,57.7156
1370414254538,57.9396
1370414314538,58.0422
1370414374538,57.8939
1370414434538,57.8721
1370414494538,57.8906
1370414554538,57.8684
1370414614538,57.8993
1370414674538,57.8008
1370414734538,57.7533
1370414794538,57.9124
1370414854538,57.9347
1370414914538,57.9746
1370414974538,57.7027
1370415034538,57.9750
1370415094538,58.1080
1370415154538,58.0174
1370415214538,57.9204
1370415274538,57.8291
1370415334538,57.8765
1370415394538,58.0007
1370415454538,57.9537
1370415514538,57.9633
1370415574538,57.8974
1370415634547,57.8781
1370415694547,57.9426
1370415754547,57.8827
1370415814547,57.7849
1370415874547,58.0344
1370415934547,57.9778
1370415994547,57.8528
1370416054547,57.9842
1370416114547,57.8609
1370416174547,57.9676
1370416234547,58.0085
1370416294547,57.9636
1370416354547,57.7543
1370416414547,57.9134
1370416474547,57.8435
1370416534547,57.9053
1370416594547,57.8532
1370416654547,57.7343
1370416714547,58.0200
1370416774547,57.7588
1370416834547,57.8092
1370416894547,57.8685
1370416954547,57.8823
1370417014547,57.6222
1370417074547,57.7329
1370417134547,57.7732
1370417194547,57.8358
1370417254547,57.8100
1370417314547,57.7109
1370417374547,57.7317
1370417434547,57.7814
1370417494547,57.9813
1370417554547,57.6009
1370417614547,57.8991
1370417674547,58.0506
1370417734547,57.7940
1370417794547,57.7173
1370417854547,57.7675
1370417914547,57.7608
1370417974547,57.7764
1370418034547,57.7352
1370418094547,57.7133
1370418154547,57.7555
1370418214547,57.8106
1370418274547,57.9041
1370418334547,57.8386
1370418394547,57.8064
1370418454547,57.6965
1370418514547,57.8811
1370418574547,57.6173
1370418634547,57.7555
1370418694547,57.9459
1370418754547,57.8436
1370418814547,57.9576
1370418874547,57.8243
1370418934547,57.8396
1370418994547,57.9644
1370419054547,57.8565
1370419114547,57.8988
1370419174547,57.9537
1370419234557,57.8368
1370419294557,57.7187
1370419354557,57.9509
1370419414557,57.9372
1370419474557,57.9319
1370419534556,58.0053
1370419594556,57.9660
1370419654557,57.8016
1370419714557,57.9363
1370419774557,57.8675
1370419834557,57.8283
1370419894557,57.8732
1370419954557,57.9360
1370420014557,57.9781
1370420074557,57.9675
1370420134557,58.0924
1370420194557,57.9871
1370420254557,58.0183
1370420314557,57.9126
1370420374557,58.1385
1370420434557,57.9282
1370420494557,57.7798
1370420554557,58.1176
1370420614557,57.9972
1370420674557,57.9872
1370420734557,58.0724
1370420794557,57.9842
1370420854557,58.0551
1370420914556,58.1218
1370420974557,58.1332
1370421034557,58.0644
1370421094557,58.0894
1370421154557,58.1765
1370421214557,58.2304
1370421274557,58.3579
1370421334557,58.4538
1370421394557,58.1175
1370421454557,58.1366
1370421514557,58.0121
1370421574557,58.5069
1370421634557,58.2116
1370421694557,58.1752
1370421754557,58.1040
1370421814557,58.2385
1370421874557,58.2891
1370421934557,58.2652
1370421994557,58.5049
1370422054557,58.3596
1370422114557,58.3618
1370422174557,58.2487
1370422234556,58.1638
1370422294556,58.1215
1370422354557,57.9642
1370422414557,58.3131
1370422474557,58.0699
1370422534557,58.1682
1370422594557,58.2924
1370422654557,58.1085
1370422714557,58.3189
1370422774557,58.3027
1370422834566,58.3543
1370422894566,58.1522
1370422954566,58.1633
1370423014566,58.3678
1370423074566,58.1508
1370423134566,58.1590
1370423194566,58.2066
1370423254566,58.2283
1370423314566,58.2895
1370423374566,58.2099
1370423434566,58.2969
1370423494566,58.2720
1370423554566,58.3630
1370423614566,58.3515
1370423674566,58.5949
1370423734566,58.2869
1370423794566,58.2307
1370423854566,58.5381
1370423914566,58.3482
1370423974566,58.1971
1370424034566,58.3041
1370424094566,58.2935
1370424154566,58.2295
1370424214566,58.1418
1370424274566,58.1465
1370424334566,58.3728
1370424394566,58.2487
1370424454566,58.0575
1370424514566,58.1707
1370424574566,58.1468
1370424634566,58.0825
1370424694566,58.0269
1370424754566,58.0004
1370424814566,58.1109
1370424874566,58.2099
1370424934566,58.1450
1370424994566,58.2317
1370425054566,58.0426
1370425114566,58.0713
1370425174566,58.1395
1370425234566,58.2861
1370425294566,58.0770
1370425354566,58.1155
1370425414566,58.0217
1370425474566,58.0334
1370425534566,58.0713
1370425594566,58.0178
1370425654566,57.9098
1370425714566,57.9757
1370425774566,57.8880
1370425834566,58.3070
1370425894566,58.0929
1370425954566,58.2099
1370426014566,58.2376
1370426074566,58.1141
1370426134566,58.2028
1370426194566,58.2539
1370426254566,58.2272
1370426314566,58.2527
1370426374566,58.2454
1370426434575,58.1708
1370426494575,58.3500
1370426554575,58.2746
1370426614575,58.2446
1370426674575,58.2491
1370426734575,58.2637
1370426794575,58.3089
1370426854575,58.1321
1370426914575,58.4728
1370426974575,58.2889
1370427034575,58.1780
1370427094575,58.1381
1370427154575,58.3656
1370427214575,58.3228
1370427274575,58.1810
1370427334575,58.2933
1370427394575,58.3016
1370427454575,58.2837
1370427514575,58.0282
1370427574575,58.1983
1370427634575,58.2719
1370427694575,58.1542
1370427754575,58.1826
1370427814575,58.0448
1370427874575,58.0774
1370427934575,57.9924
1370427994575,57.9479
1370428054575,57.9339
1370428114575,58.0343
1370428174575,57.8687
1370428234575,58.2091
1370428294575,57.9798
1370428354575,58.0697
1370428414575,58.1736
1370428474575,58.1179
1370428534575,58.0974
1370428594575,57.9066
1370428654575,57.8778
1370428714575,57.9632
1370428774575,57.9180
1370428834575,58.0099
1370428894575,58.0448
1370428954575,58.0302
1370429014575,58.0361
1370429074575,58.0778
1370429134575,58.1439
1370429194575,58.1090
1370429254575,58.1208
1370429314575,58.0759
1370429374575,58.0741
1370429434575,57.9695
1370429494575,57.9588
1370429554575,57.8399
1370429614575,58.0065
1370429674575,57.8906
1370429734575,57.9095
1370429794575,57.7818
1370429854575,57.9305
1370429914575,57.9903
1370429974575,57.9790
1370430034584,57.8956
1370430094584,57.7377
1370430154584,57.8487
1370430214584,57.8403
1370430274584,57.8327
1370430334584,57.8098
1370430394584,57.8434
1370430454584,57.7714
1370430514584,58.0563
1370430574584,57.7511
1370430634584,57.7531
1370430694584,57.8895
1370430754584,57.7695
1370430814584,57.7949
1370430874584,57.6667
1370430934584,57.7096
1370430994584,57.8316
1370431054584,57.8666
1370431114584,57.9026
1370431174584,57.9281
1370431234584,57.7747
1370431294584,57.9445
1370431354584,57.7799
1370431414584,57.7487
1370431474584,57.7597
1370431534584,57.8203
1370431594584,57.7178
1370431654584,57.8893
1370431714584,57.7790
1370431774584,57.7711
1370431834584,57.7861
1370431894584,57.7790
1370431954584,57.7921
1370432014584,57.8768
1370432074584,57.6828
1370432134584,57.8505
1370432194584,57.7770
1370432254584,57.8230
1370432314584,57.6890
1370432374584,57.8244
1370432434584,57.7075
1370432494584,57.6857
1370432554584,57.5747
1370432614584,57.5538
1370432674584,57.6343
1370432734584,57.5645
1370432794584,57.5899
1370432854584,57.6075
1370432914584,57.6509
1370432974584,57.4310
1370433034584,57.6960
1370433094584,57.5837
1370433154584,57.7361
1370433214584,57.5492
1370433274584,57.5890
1370433334584,57.6726
1370433394584,57.6597
1370433454584,57.6537
1370433514584,57.6962
1370433574584,57.4191
1370433634594,57.4118
1370433694594,57.4761
1370433754594,57.4802
1370433814594,57.7089
1370433874594,57.4489
1370433934594,57.4902
1370433994594,57.6203
1370434054594,57.5103
1370434114594,57.4810
1370434174594,57.5488
1370434234594,57.4825
1370434294594,57.5526
1370434354594,57.5615
1370434414594,57.5372
1370434474594,57.6653
1370434534594,57.4945
1370434594594,57.5063
1370434654594,57.4718
1370434714594,57.3945
1370434774594,57.6935
1370434834594,57.5742
1370434894594,57.6219
1370434954594,57.4153
1370435014594,57.5765
1370435074594,57.5299
1370435134594,57.5839
1370435194594,57.4892
1370435254594,57.5287
1370435314594,57.6757
1370435374594,57.5805
1370435434594,57.4560
1370435494594,57.7186
1370435554594,57.8194
1370435614594,57.4267
1370435674594,57.4125
1370435734594,57.5990
1370435794594,57.6441
1370435854594,57.5872
1370435914594,57.4300
1370435974594,57.4996
1370436034594,57.6758
1370436094594,57.5665
1370436154594,57.5411
1370436214594,57.5777
1370436274594,57.6990
1370436334594,57.5905
1370436394594,57.4862
1370436454594,57.6822
1370436514594,57.6170
1370436574594,57.4653
1370436634594,57.5610
1370436694594,57.5204
1370436754594,57.6262
1370436814594,57.7215
1370436874594,57.6730
1370436934594,57.6895
1370436994594,57.7506
1370437054594,57.7833
1370437114594,57.7766
1370437174594,57.4749
1370437234603,57.5496
1370437294603,57.8037
1370437354603,57.7418
1370437414603,57.7055
1370437474603,57.7405
1370437534603,57.6656
1370437594603,57.7914
1370437654603,57.6741
1370437714603,57.5846
1370437774603,57.6514
1370437834603,57.6891
1370437894603,57.7417
1370437954603,57.6611
1370438014603,57.6712
1370438074603,57.6399
1370438134603,57.4899
1370438194603,57.7866
1370438254603,57.6463
1370438314603,57.7499
1370438374603,57.7748
1370438434603,57.7640
1370438494603,57.6869
1370438554603,57.8104
1370438614603,57.7765
1370438674603,57.6924
1370438734603,57.6918
1370438794603,57.7956
1370438854603,57.8099
1370438914603,57.7644
1370438974603,57.4638
1370439034603,57.6992
1370439094603,57.8804
1370439154603,57.7028
1370439214603,57.6069
1370439274603,57.8735
1370439334603,57.5433
1370439394603,57.6180
1370439454603,57.5876
1370439514603,57.7562
1370439574603,57.8307
1370439634603,57.4959
1370439694603,57.7132
1370439754603,57.6136
1370439814603,57.4897
1370439874603,57.5251
1370439934603,57.6084
1370439994603,57.6068
1370440054603,57.6559
1370440114603,57.5688
1370440174603,57.4898
1370440234603,57.4725
1370440294603,57.6147
1370440354603,57.7546
1370440414603,57.6368
1370440474603,57.6958
1370440534603,57.7033
1370440594603,57.6470
1370440654603,57.5552
1370440714603,57.5694
1370440774603,57.6319
1370440834612,57.7195
1370440894612,57.6890
1370440954612,57.5269
1370441014612,57.5659
1370441074612,57.6189
1370441134612,57.6603
1370441194612,57.5572
1370441254612,57.4996
1370441314612,57.6526
1370441374612,57.6108
1370441434612,57.6362
1370441494612,57.4541
1370441554612,57.8190
1370441614612,57.4420
1370441674612,57.4606
1370441734612,57.4827
1370441794612,57.4098
1370441854612,57.6643
1370441914612,57.7747
1370441974612,57.5846
1370442034612,57.5276
1370442094612,57.7011
1370442154612,57.5806
1370442214612,57.6084
1370442274612,57.4890
1370442334612,57.5525
1370442394612,57.4829
1370442454612,57.4422
1370442514612,57.5308
1370442574612,57.6859
1370442634612,57.4193
1370442694612,57.7296
1370442754612,57.5467
1370442814612,57.6323
1370442874612,57.7379
1370442934612,57.7186
1370442994612,57.6685
1370443054612,57.4917
1370443114612,57.5311
1370443174612,57.6915
1370443234612,57.3440
1370443294612,57.5414
1370443354612,57.5672
1370443414612,57.6487
1370443474612,57.4846
1370443534612,57.6102
1370443594612,57.4746
1370443654612,57.6473
1370443714612,57.4752
1370443774612,57.7744
1370443834612,57.5840
1370443894612,57.6291
1370443954612,57.6008
1370444014612,57.4947
1370444074612,57.6649
1370444134612,57.3497
1370444194612,57.6234
1370444254612,57.7071
1370444314612,57.4836
1370444374612,57.5397
1370444434621,57.5190
1370444494621,57.3957
1370444554621,57.6217
1370444614621,57.6795
1370444674621,57.5372
1370444734621,57.6059
1370444794621,57.4417
1370444854621,57.5438
1370444914621,57.5331
1370444974621,57.3985
1370445034621,57.6118
1370445094621,57.5609
1370445154621,57.5505
1370445214621,57.5828
1370445274621,57.7043
1370445334621,57.4818
1370445394621,57.8293
1370445454621,57.5350
1370445514621,57.6293
1370445574621,57.7226
1370445634621,57.4817
1370445694621,57.5177
1370445754621,57.5306
1370445814621,57.6504
1370445874621,57.3587
1370445934621,57.6587
1370445994621,57.6052
1370446054621,57.6355
1370446114621,57.3920
1370446174621,57.3705
1370446234621,57.5908
1370446294621,57.4220
1370446354621,57.4557
1370446414621,57.3699
1370446474621,57.6055
1370446534621,57.6331
1370446594621,57.4152
1370446654621,57.4810
1370446714621,57.3224
1370446774621,57.4220
1370446834621,57.4492
1370446894621,57.5225
1370446954621,57.5924
1370447014621,57.4066
1370447074621,57.3415
1370447134621,57.3392
1370447194621,57.6007
1370447254621,57.4562
1370447314621,57.5285
1370447374621,57.5391
1370447434621,57.4838
1370447494621,57.6735
1370447554621,57.4122
1370447614621,57.5112
1370447674621,57.3795
1370447734621,57.4456
1370447794621,57.5331
1370447854621,57.6046
1370447914621,57.4733
1370447974621,57.3528
1370448034631,57.5580
1370448094631,57.4263
1370448154631,57.4808
1370448214631,57.5369
1370448274631,57.4753
1370448334631,57.6495
1370448394631,57.4865
1370448454631,57.5072
1370448514631,57.3701
1370448574631,57.4375
1370448634631,57.4215
1370448694631,57.3962
1370448754631,57.5184
1370448814631,57.4433
1370448874631,57.6340
1370448934631,57.4562
1370448994631,57.5280
1370449054631,57.6456
1370449114631,57.3417
1370449174631,57.3575
1370449234631,57.3802
1370449294631,57.5673
1370449354631,57.4135
1370449414631,57.5041
1370449474631,57.2768
1370449534631,57.5533
1370449594631,57.6226
1370449654631,57.6274
1370449714631,57.6954
1370449774631,57.4906
1370449834631,57.4107
1370449894631,57.6776
1370449954631,57.6263
1370450014631,57.6224
1370450074631,57.6454
1370450134631,57.5675
1370450194631,57.5636
1370450254631,57.4909
1370450314631,57.7501
1370450374631,57.7332
1370450434631,57.6715
1370450494631,57.5373
1370450554631,57.4358
1370450614631,57.4759
1370450674631,57.5520
1370450734631,57.6578
1370450794631,57.4537
1370450854631,57.7280
1370450914631,57.5441
1370450974631,57.7118
1370451034631,57.6757
1370451094631,57.6069
1370451154631,57.5689
1370451214631,57.7008
1370451274631,57.7347
1370451334631,57.6027
1370451394631,57.6404
1370451454631,57.6239
1370451514631,57.6082
1370451574631,57.5909
1370451634640,57.5137
1370451694640,57.6582
1370451754641,57.8414
1370451814641,57.7588
1370451874641,57.6053
1370451934641,57.4621
1370451994641,57.7388
1370452054640,57.7682
1370452114640,57.5102
1370452174640,57.5609
1370452234640,57.5807
1370452294640,57.5306
1370452834640,57.4812
1370452894640,57.5197
1370452954640,57.5381
1370453014640,57.6920
1370453074641,57.6073
1370453134641,57.5872
1370453194641,57.6032
1370453254641,57.7807
1370453314641,57.5213
1370453374641,57.5599
1370453434640,57.6183
1370453494640,57.7736
1370453554640,57.7592
1370453614640,57.6546
1370453674640,57.8813
1370453734640,57.5949
1370453794640,57.6690
1370453854640,57.6662
1370453914640,57.7878
1370453974640,57.5859
1370454034640,57.5492
1370454094640,57.4757
1370454154640,57.5683
1370454214640,57.5250
1370454274640,57.6711
1370454334640,57.5388
1370454394640,57.6122
1370454454641,57.8546
1370454514641,57.7396
1370454574641,57.5894
1370454634641,57.5297
1370454694641,57.7961
1370454754640,57.4876
1370454814640,57.6231
1370454874640,57.8663
1370454934640,57.7491
1370454994640,57.6659
1370455054640,57.8314
1370455114640,57.7966
1370455174640,57.8331
1370455234650,57.6675
1370455294650,57.7710
1370455354650,57.9325
1370455414650,58.0044
1370455474650,57.8424
1370455534650,57.8046
1370455594650,57.7059
1370455654650,57.8507
1370455714651,57.7989
1370455774650,57.8343
1370455834650,57.8121
1370455894650,57.8496
1370455954650,57.8930
1370456014650,58.1095
1370456074650,57.7523
1370456134650,57.8270
1370456194650,57.8715
1370456254650,57.7477